Location: Berbisdorf
(50.7638°N, 12.9442°E)
Time: 02:32:19
(UTC+00:00)

BREEZE-M DEB (TANK) - Pass Details

Date: 06 October 2020
Orbit: 333 x 12040 km, 49.7° (Epoch: 19 October)

Event Time Altitude Azimuth Distance (km) Brightness Sun altitude
Rises 03:55:06 0° 210° (SSW) 15,157 9.0 -13.7°
Reaches altitude 10° 04:08:40 10° 209° (SSW) 15,192 9.0 -11.6°
Maximum altitude 05:43:44 74° 146° (SE) 8,007 8.2 3.3°
Drops below altitude 10° 06:11:52 10° 70° (ENE) 6,322 8.4 7.6°
Sets 06:14:46 0° 69° (ENE) 6,655 8.5 8.0°
